[[{"header":{"parameterUnit":"m.s-1","parameterCategory":1,"la1":30.2991,"la2":30.254,"lo1":-89.0895,"lo2":-89.0444,"dy":0.0017,"dx":0.0017,"nx":28,"ny":28,"refTime":"2025-03-15T21:00:00:Z","depth":0,"parameterNumber":2,"parameterNumberName":"U-component_of_WINDS"},"data":[0,0,0,0,0,0,0,0,0,0,0,0,0,0,0,0,0,0,0,0,0,0,0,0,0,0,0,0,0,0,0,0,0,0,0,0,0,0,0,0,0,0,0,0,0,0,0,0,0,0,0,0,0,0,0,0,0,0,6.746,6.7462,0,6.7613,6.7615,6.7616,6.757,6.7567,6.7564,6.7561,6.7719,6.7726,6.7733,0,0,0,0,0,0,0,0,0,0,0,0,0,6.7134,6.714,6.746,6.7462,6.7464,6.7612,6.7615,6.7617,6.7571,6.7567,6.7563,6.756,6.7717,6.7725,6.7734,0,0,0,0,0,0,0,0,0,0,0,0,0,6.728,6.7142,6.746,6.7459,6.7461,6.7612,6.7615,6.7617,6.7572,6.7567,6.7562,6.7558,6.7714,6.7724,6.7735,6.7897,0,0,6.7768,6.7772,0,0,0,0,0,0,0,0,6.7271,6.7292,6.7457,6.7459,6.7461,6.7568,6.7557,6.7711,6.7573,6.753,6.7561,6.7555,6.7673,6.7686,6.7726,6.7904,6.7911,6.7769,6.7775,6.778,6.7783,0,0,0,0,0,0,0,6.7261,6.7285,6.7521,6.746,6.7462,6.7452,6.7468,6.7586,6.7626,6.7533,6.753,6.7549,6.7673,6.7715,6.7729,6.7913,6.7768,6.7778,6.7785,6.7789,6.8237,6.8242,0,0,0,0,0,0,6.725,6.7277,6.7516,6.7525,6.7353,6.7462,6.7479,6.7538,6.7625,6.7633,6.7553,6.7546,6.7699,6.7716,6.7734,6.7932,6.778,6.779,6.7796,6.8231,6.8238,6.8244,0,0,0,0,0,0,6.7243,6.7271,6.751,6.74,6.743,6.7473,6.7539,6.7544,6.7586,6.7639,6.7647,6.7588,6.7696,6.7719,6.7858,6.7937,6.7795,6.7804,6.8225,6.8233,6.8241,6.8328,0,0,0,0,0,0,6.7233,6.7269,6.733,6.7402,6.7436,6.7629,6.7544,6.755,6.7605,6.7598,6.7675,6.7683,6.7694,6.7842,6.7868,6.7949,6.7813,6.8218,6.8229,6.8238,6.8318,6.8338,6.8355,0,0,0,0,0,6.7222,6.7348,6.7333,6.7362,6.7513,6.7634,6.7653,6.7663,6.7611,6.7674,6.7709,6.7681,6.7924,6.7856,6.7886,6.7971,6.8213,6.8226,6.8238,6.831,6.8334,6.8355,0,0,0,0,0,0,6.7284,6.7357,6.7342,6.7495,6.7559,6.7626,6.7705,6.7688,6.7768,6.7758,6.7767,6.7785,6.7928,6.7963,6.7886,6.8135,6.8061,6.808,6.8106,6.813,6.8148,6.8137,6.7822,0,0,0,0,0,6.7315,6.7407,6.7466,6.7595,6.7628,6.7662,6.7714,6.7717,6.7783,6.781,6.7855,6.7921,6.8013,6.8073,6.816,6.8323,6.8341,6.8397,6.8415,6.843,6.8447,6.8539,6.8565,6.8284,6.8284,6.8284,0,0,6.7381,6.7433,6.749,6.7609,6.7659,6.7755,6.7684,6.7788,6.786,6.7826,6.796,6.7995,6.807,6.8223,6.8292,6.8257,6.8528,6.8446,6.8457,6.8466,6.8554,6.8581,6.8604,6.8292,6.8291,6.829,0,0,6.7551,6.7598,6.7712,6.7764,6.784,6.7862,6.789,6.7961,6.7983,6.8118,6.8095,6.8181,6.8338,6.8394,6.8442,6.8637,6.8615,6.8665,6.8762,6.8851,6.8874,6.8893,6.8965,6.899,6.8681,6.8681,6.8681,0,6.7623,6.7766,6.7773,6.788,6.7935,6.7909,6.8026,6.8076,6.8177,6.8216,6.8175,6.8374,6.8422,6.8589,6.8637,6.8676,6.871,6.8656,6.887,6.8889,6.8908,6.8977,6.9003,6.8687,6.8686,6.8685,6.8685,0,6.7853,6.7953,6.8036,6.8135,6.8199,6.8311,6.8336,6.84,6.8398,6.8424,6.8564,6.8621,6.8721,6.876,6.8758,6.8928,6.8904,6.8866,6.8793,6.894,6.9005,6.9031,6.8695,6.8693,6.8691,6.869,0,0,6.8065,6.8168,6.8199,6.8245,6.8329,6.8407,6.8518,6.8616,6.8672,6.8743,6.8839,6.8974,6.894,6.8996,6.9,6.9079,6.9232,6.9032,6.9034,6.9069,6.9426,6.9455,6.9485,6.9218,6.9223,6.9227,6.9421,0,6.8243,6.8439,6.845,6.8628,6.8722,6.87,6.8798,6.8861,6.889,6.8975,6.9006,6.9103,6.905,6.9084,6.916,6.9197,6.9304,6.9183,6.9309,6.9314,6.9292,6.9519,6.9549,6.9729,6.9446,6.945,6.9453,0,6.8477,6.8557,6.8745,6.8818,6.8858,6.8945,6.9038,6.9118,6.919,6.9206,6.9269,6.9263,6.938,6.9302,6.9464,6.9382,6.9434,6.946,6.9468,6.9481,6.9393,6.954,6.9786,6.9813,6.9492,6.9489,6.9486,0,6.8616,6.877,6.8903,6.8943,6.9031,6.9094,6.9134,6.9201,6.926,6.9341,6.938,6.9473,6.9524,6.9598,6.9618,6.9559,6.9781,6.9704,6.9799,6.9799,6.9847,6.9844,7.0107,6.9879,6.9878,6.9878,6.9877,0,6.8816,6.8932,6.8967,6.9049,6.918,6.9193,6.9322,6.9358,6.9419,6.9509,6.9495,6.958,6.96,6.969,6.9707,6.984,6.9863,6.988,6.9884,6.9883,6.9881,6.9918,6.9907,6.9885,6.9883,6.9882,6.9881,0,6.8993,6.9021,6.9165,6.9238,6.9259,6.9352,6.9415,6.9495,6.9522,6.9636,6.9664,6.9707,6.9812,6.9839,6.9965,6.9976,7.0134,7.0125,7.011,7.011,7.0204,7.0196,7.0502,7.0543,7.0286,7.0288,7.029,0,6.9119,6.9208,6.9291,6.935,6.9393,6.9488,6.9549,6.9565,6.9629,6.972,6.979,6.9893,6.9977,7.0146,7.019,7.0286,7.028,7.0381,7.0295,7.0292,7.0285,7.028,7.029,7.0397,7.04,7.0402,7.0404,0,6.9341,6.9351,6.9438,6.9532,6.9605,6.968,6.9751,6.98,6.9827,6.99,7.0008,7.0073,7.0202,7.0305,7.0403,7.0446,7.0431,7.0431,7.0458,7.0459,7.0448,7.0457,7.0157,7.0424,7.0422,7.0421,7.0419,7.0419,6.9498,6.9578,6.9649,6.9748,6.9803,6.9871,6.9951,6.9988,7.0078,7.0184,7.0189,7.0306,7.0379,7.0509,7.0557,7.065,7.062,7.0659,7.0669,7.0679,7.0689,7.0432,7.0668,7.0667,7.0667,7.0666,7.0666,0,6.9721,6.9766,6.9857,6.9958,7.0037,7.0015,7.0094,7.0161,7.0265,7.0333,7.0416,7.0541,7.0643,7.0695,7.0796,7.0861,7.0857,7.0887,7.0883,7.0894,7.0709,7.0676,7.0889,7.0889,7.0889,7.0888,7.0888,7.0888,6.9847,6.9981,7.0,7.0163,7.0207,7.0322,7.0369,7.0432,7.0488,7.0628,7.0712,7.0745,7.0808,7.0914,7.1007,7.1019,7.1058,7.1093,7.1102,7.0929,7.0906,7.0885,7.0854,7.1101,7.1101,7.128,7.1281,7.1283]},{"header":{"parameterUnit":"m.s-1","parameterCategory":1,"la1":30.2991,"la2":30.254,"lo1":-89.0895,"lo2":-89.0444,"dy":0.0017,"dx":0.0017,"nx":28,"ny":28,"refTime":"2025-03-15T21:00:00:Z","depth":0,"parameterNumber":3,"parameterNumberName":"V-component_of_WINDS"},"data":[0,0,0,0,0,0,0,0,0,0,0,0,0,0,0,0,0,0,0,0,0,0,0,0,0,0,0,0,0,0,0,0,0,0,0,0,0,0,0,0,0,0,0,0,0,0,0,0,0,0,0,0,0,0,0,0,0,0,-1.3059,-1.3057,0,-1.2903,-1.2902,-1.29,-1.2863,-1.2864,-1.2865,-1.2866,-1.2701,-1.2695,-1.269,0,0,0,0,0,0,0,0,0,0,0,0,0,-1.332,-1.3316,-1.3059,-1.3057,-1.3055,-1.2904,-1.2901,-1.2899,-1.2863,-1.2864,-1.2865,-1.2866,-1.2702,-1.2696,-1.269,0,0,0,0,0,0,0,0,0,0,0,0,0,-1.319,-1.3314,-1.306,-1.3019,-1.3014,-1.2904,-1.2901,-1.2899,-1.2862,-1.2864,-1.2865,-1.2867,-1.2704,-1.2697,-1.2689,-1.2607,0,0,-1.2664,-1.266,0,0,0,0,0,0,0,0,-1.3197,-1.318,-1.3027,-1.3021,-1.3015,-1.2904,-1.2933,-1.2801,-1.2862,-1.292,-1.2866,-1.2868,-1.2767,-1.2754,-1.2721,-1.2599,-1.2592,-1.2663,-1.2658,-1.2655,-1.2653,0,0,0,0,0,0,0,-1.3206,-1.3187,-1.2997,-1.3025,-1.3018,-1.3007,-1.299,-1.2908,-1.2836,-1.2915,-1.2912,-1.2894,-1.2764,-1.2729,-1.2716,-1.2589,-1.2663,-1.2656,-1.2651,-1.2648,-1.2393,-1.2391,0,0,0,0,0,0,-1.3223,-1.3195,-1.3002,-1.2993,-1.3112,-1.3001,-1.2982,-1.2938,-1.2837,-1.2823,-1.2893,-1.2893,-1.2742,-1.2726,-1.2711,-1.2608,-1.2655,-1.2647,-1.2643,-1.2395,-1.2392,-1.239,0,0,0,0,0,0,-1.3229,-1.3206,-1.3009,-1.3093,-1.3067,-1.2995,-1.2946,-1.2934,-1.2899,-1.282,-1.2807,-1.287,-1.2742,-1.2722,-1.2633,-1.2601,-1.2644,-1.2636,-1.2397,-1.2394,-1.2391,-1.2402,0,0,0,0,0,0,-1.3237,-1.3209,-1.3178,-1.3092,-1.3062,-1.2935,-1.2944,-1.293,-1.2886,-1.2884,-1.2795,-1.2782,-1.2742,-1.2646,-1.2625,-1.2591,-1.263,-1.24,-1.2396,-1.2392,-1.2404,-1.24,-1.2396,0,0,0,0,0,-1.3246,-1.3186,-1.3176,-1.3153,-1.3023,-1.2934,-1.2916,-1.2873,-1.2883,-1.2851,-1.2801,-1.2785,-1.2609,-1.2637,-1.2614,-1.2577,-1.2401,-1.2397,-1.2393,-1.2406,-1.24,-1.2396,0,0,0,0,0,0,-1.3267,-1.3174,-1.3162,-1.3073,-1.3012,-1.2928,-1.2885,-1.2868,-1.2801,-1.2803,-1.275,-1.273,-1.2645,-1.2602,-1.2635,-1.2492,-1.2505,-1.2496,-1.2523,-1.2517,-1.2513,-1.2525,-1.2623,0,0,0,0,0,-1.3262,-1.3199,-1.312,-1.3048,-1.3019,-1.2958,-1.2917,-1.2889,-1.2823,-1.2796,-1.2739,-1.2674,-1.2604,-1.2558,-1.2489,-1.2398,-1.2378,-1.2361,-1.2357,-1.2355,-1.2347,-1.2295,-1.2286,-1.2376,-1.2376,-1.2376,0,0,-1.3249,-1.319,-1.3153,-1.3051,-1.3,-1.2935,-1.2936,-1.2866,-1.2817,-1.2785,-1.2698,-1.2654,-1.2578,-1.2488,-1.2445,-1.2449,-1.2318,-1.2349,-1.2347,-1.2341,-1.229,-1.2281,-1.2274,-1.2373,-1.2374,-1.2374,0,0,-1.3192,-1.3142,-1.3077,-1.3027,-1.2951,-1.2911,-1.2896,-1.2814,-1.2784,-1.2697,-1.2672,-1.2611,-1.2492,-1.2439,-1.2396,-1.2321,-1.2304,-1.23,-1.2278,-1.2229,-1.2221,-1.2215,-1.2187,-1.2178,-1.2293,-1.2293,-1.2293,0,-1.3185,-1.3087,-1.3045,-1.2977,-1.2933,-1.2904,-1.2837,-1.2789,-1.2694,-1.2663,-1.267,-1.252,-1.2467,-1.2364,-1.2346,-1.2312,-1.2292,-1.2309,-1.2226,-1.2219,-1.2212,-1.2185,-1.2175,-1.2293,-1.2293,-1.2293,-1.2293,0,-1.3082,-1.3015,-1.2971,-1.2882,-1.2833,-1.2766,-1.2712,-1.2667,-1.2644,-1.2603,-1.2514,-1.245,-1.2367,-1.2341,-1.2317,-1.2234,-1.224,-1.2237,-1.2249,-1.2205,-1.2178,-1.2168,-1.2293,-1.2293,-1.2293,-1.2293,0,0,-1.3032,-1.2922,-1.2907,-1.2866,-1.2781,-1.2727,-1.2659,-1.258,-1.2542,-1.2478,-1.2418,-1.2319,-1.2317,-1.2268,-1.2238,-1.2195,-1.2139,-1.2197,-1.2195,-1.2188,-1.2043,-1.2045,-1.2034,-1.2128,-1.2126,-1.2124,-1.2049,0,-1.2964,-1.2842,-1.2803,-1.2701,-1.2637,-1.261,-1.255,-1.2491,-1.2451,-1.239,-1.2346,-1.2276,-1.2278,-1.2249,-1.2205,-1.2155,-1.2109,-1.216,-1.207,-1.2067,-1.2089,-1.202,-1.2021,-1.1953,-1.2039,-1.2037,-1.2036,0,-1.2867,-1.2804,-1.2696,-1.262,-1.2592,-1.2539,-1.2464,-1.2407,-1.2339,-1.2313,-1.2261,-1.2234,-1.216,-1.2178,-1.2075,-1.2111,-1.2072,-1.2042,-1.2039,-1.2027,-1.2048,-1.2005,-1.1931,-1.192,-1.2019,-1.2021,-1.2022,0,-1.2841,-1.2728,-1.2649,-1.2616,-1.2525,-1.2488,-1.2448,-1.2382,-1.2338,-1.2272,-1.2243,-1.2169,-1.2128,-1.2071,-1.2025,-1.2042,-1.1925,-1.1939,-1.19,-1.1901,-1.1875,-1.1877,-1.1792,-1.1853,-1.1853,-1.1853,-1.1853,0,-1.2768,-1.2703,-1.2636,-1.2587,-1.2514,-1.2469,-1.2397,-1.2355,-1.2297,-1.2238,-1.221,-1.2155,-1.2099,-1.2036,-1.2,-1.192,-1.1902,-1.1878,-1.1868,-1.1879,-1.1882,-1.1852,-1.1855,-1.185,-1.1851,-1.1852,-1.1852,0,-1.2725,-1.2678,-1.259,-1.2512,-1.2491,-1.244,-1.2372,-1.2323,-1.2284,-1.221,-1.219,-1.2127,-1.2052,-1.2002,-1.1905,-1.1881,-1.1794,-1.1786,-1.1817,-1.1812,-1.1776,-1.1779,-1.1667,-1.1649,-1.1723,-1.1723,-1.1722,0,-1.2681,-1.263,-1.2548,-1.2508,-1.2469,-1.2404,-1.2359,-1.2314,-1.2268,-1.2188,-1.2148,-1.2072,-1.2009,-1.1891,-1.1835,-1.1761,-1.1751,-1.1717,-1.1739,-1.1752,-1.1749,-1.1752,-1.1746,-1.1712,-1.1712,-1.1711,-1.1711,0,-1.2607,-1.2587,-1.2525,-1.2454,-1.2402,-1.2343,-1.2285,-1.2253,-1.2197,-1.2147,-1.2072,-1.2023,-1.1926,-1.1851,-1.1772,-1.1729,-1.171,-1.1705,-1.1691,-1.1701,-1.1721,-1.1709,-1.1806,-1.1707,-1.1707,-1.1708,-1.1708,-1.1708,-1.2561,-1.2515,-1.2451,-1.2382,-1.2334,-1.228,-1.223,-1.2185,-1.2122,-1.2041,-1.2018,-1.1939,-1.1872,-1.1765,-1.1722,-1.1658,-1.1661,-1.1642,-1.1637,-1.1633,-1.1633,-1.1733,-1.1644,-1.1644,-1.1644,-1.1644,-1.1644,0,-1.2486,-1.2443,-1.2381,-1.2301,-1.2246,-1.2236,-1.2171,-1.2126,-1.2057,-1.1998,-1.1937,-1.185,-1.1778,-1.1717,-1.1642,-1.1603,-1.1592,-1.1584,-1.1586,-1.1576,-1.1635,-1.1653,-1.1594,-1.1594,-1.1594,-1.1594,-1.1594,-1.1594,-1.244,-1.2362,-1.2334,-1.2231,-1.2188,-1.2112,-1.2076,-1.2026,-1.1978,-1.1883,-1.1824,-1.1786,-1.1725,-1.1645,-1.1578,-1.1562,-1.1534,-1.1529,-1.151,-1.1566,-1.1572,-1.1577,-1.1594,-1.1523,-1.1523,-1.1456,-1.1456,-1.1455]}]]